Location: Boissi�res
(45.2500°N, 2.3667°E)
Time: 16:17:17
(UTC+00:00)

CZ-2C R/B - Pass Details

Date: 03 March 2021
Orbit: 783 x 871 km, 98.2° (Epoch: 18 April)

Event Time Altitude Azimuth Distance (km) Brightness Sun altitude
Rises 18:01:22 0° 23° (NNE) 3,426 5.6 -4.5°
Reaches altitude 10° 18:04:09 10° 36° (NE) 2,472 4.8 -4.9°
Maximum altitude 18:08:44 27° 93° (E) 1,563 3.6 -5.7°
Drops below altitude 10° 18:13:11 10° 150° (SSE) 2,408 4.8 -6.5°
Sets 18:15:51 0° 162° (SSE) 3,320 5.6 -7.0°
